Weather History for Punta Gorda, FL

Change the Weather History Date:

Tuesday, December 11, 2012

  Actual Average Record
Temperature  
Mean Temperature 74 °F -  
Max Temperature 80 °F 73 °F 84 °F (1997)
Min Temperature 69 °F 53 °F 46 °F (1996)
Cooling Degree Days 10    
Growing Degree Days 24 (Base 50)    
Moisture  
Dew Point 71 °F    
Average Humidity 91    
Maximum Humidity 100    
Minimum Humidity 74    
Precipitation  
Precipitation 0.85 in - - ()
Sea Level Pressure  
Sea Level Pressure 29.99 in    
Wind  
Wind Speed 8 mph (SSW)    
Max Wind Speed 15 mph    
Max Gust Speed 22 mph    
Visibility 9 miles    
Events Rain    
Averages and records for this station are not official NWS values.
T = Trace of Precipitation, MM = Missing Value Source: NWS Daily Summary

Daily Weather History Graph

Daily Weather History Graph

Search for Another Location

Airport:

Trip Planner

Search our weather history database for the weather conditions in past years. The results will help you decide how hot, cold, wet, or windy it might be!

Date:

Astronomy

Dec. 11, 2012 Rise Set
Actual Time 7:07 AM EST 5:35 PM EST
Civil Twilight 6:41 AM EST 6:01 PM EST
Nautical Twilight 6:12 AM EST 6:30 PM EST
Astronomical Twilight 5:44 AM EST 6:58 PM EST
Moon 5:05 AM EST (12/11) 4:09 PM EST (12/11)
Length of Visible Light 11h 19m
Length of Day
10h 28m
Waning Crescent, 4% of the Moon is Illuminated
Dec 11
Waning Crescent
Dec 13
New
Dec 20
First Quarter
Dec 28
Full
Jan 4
Last Quarter

Hourly Weather History & Observations

Time (EST) Temp. Heat Index Dew Point Humidity Pressure Visibility Wind Dir Wind Speed Gust Speed Precip Events Conditions
12:14 AM 73.4 °F - 71.6 °F 94% 29.96 in 10.0 mi North - - 0.00 in   Overcast
12:33 AM 73.4 °F - 71.6 °F 94% 29.96 in 10.0 mi North - - 0.00 in   Overcast
12:53 AM 73.9 °F - 72.0 °F 93% 29.97 in 2.5 mi North - - 0.15 in Rain Heavy Rain
1:00 AM 69.8 °F - 69.8 °F 100% 29.96 in 1.2 mi North - - 0.15 in Rain Heavy Rain
1:05 AM 69.8 °F - 69.8 °F 100% 29.96 in 2.0 mi South 11.5 mph - 0.16 in Rain Rain
1:08 AM 69.8 °F - 69.8 °F 100% 29.96 in 3.0 mi SSW 9.2 mph - 0.16 in Rain Light Rain
1:23 AM - - - N/A% 29.95 in 10.0 mi South 11.5 mph - 0.16 in   Mostly Cloudy
1:36 AM - - - N/A% 29.96 in 10.0 mi SW 9.2 mph - 0.16 in   Partly Cloudy
1:53 AM - - - N/A% 29.96 in 10.0 mi South 8.1 mph - 0.16 in   Partly Cloudy
2:53 AM 73.0 °F - 71.1 °F 93% 29.94 in 10.0 mi South 5.8 mph - N/A   Clear
3:32 AM 71.6 °F - 71.6 °F 100% 29.95 in 10.0 mi South 9.2 mph - N/A   Scattered Clouds
3:53 AM 73.0 °F - 71.1 °F 93% 29.95 in 10.0 mi South 10.4 mph - N/A   Mostly Cloudy
4:04 AM 71.6 °F - 71.6 °F 100% 29.95 in 10.0 mi South 11.5 mph - 0.00 in Rain Light Rain
4:53 AM 72.0 °F - 70.0 °F 93% 29.94 in 10.0 mi South 8.1 mph - 0.01 in   Partly Cloudy
5:53 AM 71.1 °F - 70.0 °F 96% 29.95 in 10.0 mi SSE 6.9 mph - N/A   Partly Cloudy
6:53 AM 71.1 °F - 70.0 °F 96% 29.96 in 10.0 mi South 5.8 mph - 0.00 in   Mostly Cloudy
7:53 AM 72.0 °F - 70.0 °F 93% 29.99 in 10.0 mi South 6.9 mph - N/A   Clear
8:53 AM 73.0 °F - 71.1 °F 93% 29.99 in 10.0 mi SSE 6.9 mph - N/A   Overcast
9:53 AM 75.0 °F - 72.0 °F 90% 30.01 in 10.0 mi South 9.2 mph - N/A   Clear
10:53 AM 78.1 °F - 72.0 °F 81% 30.02 in 10.0 mi South 12.7 mph - N/A   Clear
11:53 AM 80.1 °F 83.6 °F 71.1 °F 74% 30.00 in 10.0 mi SSW 6.9 mph - N/A   Scattered Clouds
12:53 PM 79.0 °F - 72.0 °F 79% 29.98 in 10.0 mi West 8.1 mph - N/A   Scattered Clouds
1:53 PM 80.1 °F 83.8 °F 72.0 °F 76% 29.97 in 10.0 mi WNW 8.1 mph - N/A   Scattered Clouds
2:53 PM 78.1 °F - 70.0 °F 76% 29.97 in 10.0 mi West 8.1 mph - N/A   Partly Cloudy
3:53 PM 75.9 °F - 70.0 °F 82% 29.98 in 10.0 mi WSW 5.8 mph - N/A   Overcast
4:53 PM 75.9 °F - 70.0 °F 82% 29.99 in 10.0 mi WSW 4.6 mph - N/A   Mostly Cloudy
5:53 PM 73.9 °F - 70.0 °F 87% 29.97 in 10.0 mi Calm Calm - N/A   Partly Cloudy
6:53 PM 73.0 °F - 70.0 °F 90% 29.99 in 10.0 mi Calm Calm - N/A   Clear
7:53 PM 73.0 °F - 70.0 °F 90% 30.01 in 10.0 mi Calm Calm - 0.00 in Rain Light Rain
8:53 PM 73.0 °F - 71.1 °F 93% 30.03 in 10.0 mi Calm Calm - 0.00 in   Mostly Cloudy
9:53 PM 73.0 °F - 72.0 °F 96% 30.05 in 9.0 mi Calm Calm - 0.01 in Rain Light Rain
10:13 PM 73.4 °F - 71.6 °F 94% 30.06 in 3.0 mi SSW 9.2 mph - 0.06 in Rain Rain
10:18 PM 73.4 °F - 71.6 °F 94% 30.06 in 1.8 mi SSW 15.0 mph 21.9 mph 0.22 in Rain Heavy Rain
10:33 PM 71.6 °F - 69.8 °F 94% 30.06 in 4.0 mi Calm Calm - 0.49 in Rain Light Rain
10:42 PM 71.6 °F - 69.8 °F 94% 30.06 in 10.0 mi Calm Calm - 0.50 in Rain Light Rain
10:53 PM 71.1 °F - 69.1 °F 93% 30.06 in 10.0 mi South 3.5 mph - 0.51 in Rain Light Rain
11:53 PM 71.1 °F - 70.0 °F 96% 30.06 in 10.0 mi Calm Calm - 0.01 in Rain Light Rain